カタログに戻る

ONEWEB-0430

運用中通信PO
NORAD 50501·PAYLOAD·🇬🇧 United Kingdom

打ち上げ Dec 27, 2021 から Baikonur Cosmodrome

Loading…

次のパス (今後24時間)

TLE

最新Source: CelesTrak SupGP

元期: Sep 14, 2026, 19:25 UTC

1 50501C 21132AJ  26257.80954120 -.00001324  00000+0 -33613-2 0  2577
2 50501  87.9160 317.6498 0001862  92.0322  20.6112 13.18687458    11

AllMySatでONEWEB-0430をリアルタイム追跡

Download on the App Store